Temperature
-2 -1 -1 -1 -2 -2 -3 -2 -2 -1 -1 -1 -1 -1 -1 -1 -2 -2 -2 -2 -3 -3 -3 -2 -2 -1 -1 -1 -1 -1 -0 -0 0 0 0 1 1 1 1 1 2 2 2 3
-3 -2 -1 -1 -1 -2 -2 -2 -2 -2 -2 -1 -1 -1 -2 -2 -3 -3 -3 -3 -3 -3 -3 -3 -3 -2 -2 -2 -1 -1 -1 -1 -0 -0 0 0 0 1 1 1 1 2 2 2
-2 -2 -2 -2 -2 -2 -3 -3 -3 -3 -3 -2 -3 -3 -3 -3 -3 -3 -3 -4 -4 -4 -4 -4 -3 -3 -3 -2 -2 -2 -2 -1 -1 -1 -0 -0 0 0 0 1 1 1 2 2
-3 -3 -3 -2 -2 -2 -3 -4 -4 -4 -3 -3 -3 -3 -3 -3 -3 -4 -4 -4 -4 -4 -4 -4 -4 -3 -3 -3 -2 -2 -2 -2 -1 -1 -1 -0 -0 -0 0 0 1 1 1 1
-3 -3 -3 -2 -3 -4 -4 -4 -4 -4 -4 -4 -3 -3 -3 -3 -4 -4 -5 -5 -5 -4 -4 -4 -4 -4 -3 -3 -3 -3 -2 -2 -2 -2 -1 -1 -1 -0 -0 -0 0 0 1 1
-4 -4 -3 -2 -4 -4 -4 -4 -4 -4 -5 -4 -5 -5 -5 -4 -5 -5 -5 -5 -5 -5 -5 -4 -4 -4 -4 -4 -3 -3 -3 -3 -2 -2 -2 -1 -1 -1 -1 -0 -0 0 0 0
-5 -4 -4 -4 -5 -4 -4 -4 -4 -4 -4 -5 -6 -6 -5 -5 -5 -5 -5 -5 -5 -5 -5 -5 -5 -5 -4 -4 -4 -4 -3 -3 -3 -2 -2 -2 -1 -1 -1 -1 -1 -0 -0 -0
-5 -5 -4 -5 -5 -6 -5 -4 -5 -5 -5 -5 -6 -6 -6 -6 -6 -6 -6 -5 -5 -5 -5 -5 -5 -5 -5 -5 -4 -4 -4 -3 -3 -3 -2 -2 -2 -2 -1 -1 -1 -1 -1 -0
-5 -5 -4 -4 -5 -5 -5 -5 -5 -5 -6 -6 -6 -6 -6 -6 -6 -6 -6 -6 -6 -6 -6 -6 -5 -5 -5 -5 -5 -4 -4 -4 -3 -3 -3 -3 -2 -2 -2 -2 -1 -1 -1 -1
-6 -5 -4 -4 -4 -5 -5 -5 -5 -6 -6 -6 -7 -7 -7 -7 -7 -7 -6 -6 -6 -6 -6 -6 -6 -6 -6 -6 -5 -5 -5 -4 -4 -4 -3 -3 -3 -3 -2 -2 -2 -2 -2 -1
-7 -7 -5 -4 -4 -5 -5 -5 -6 -6 -6 -6 -7 -7 -7 -7 -7 -7 -7 -7 -7 -7 -7 -7 -6 -6 -6 -6 -6 -6 -5 -5 -4 -4 -4 -4 -3 -3 -3 -3 -3 -3 -2 -2
-6 -5 -6 -5 -5 -5 -6 -6 -6 -6 -6 -7 -7 -7 -7 -7 -7 -7 -7 -7 -7 -7 -7 -7 -7 -7 -6 -6 -6 -6 -6 -5 -5 -5 -5 -4 -4 -4 -3 -3 -3 -3 -3 -3
-5 -5 -6 -6 -6 -6 -6 -6 -7 -7 -7 -7 -7 -7 -8 -7 -7 -7 -7 -7 -8 -8 -7 -7 -7 -7 -7 -7 -6 -6 -6 -6 -6 -5 -5 -5 -5 -4 -4 -4 -4 -3 -3 -3
-6 -6 -6 -6 -7 -7 -7 -7 -7 -7 -7 -7 -8 -8 -8 -8 -8 -8 -8 -8 -8 -8 -8 -8 -7 -7 -7 -7 -7 -7 -6 -6 -6 -6 -6 -6 -5 -5 -5 -5 -5 -4 -4 -4
-7 -7 -7 -7 -7 -7 -7 -7 -8 -8 -8 -8 -8 -8 -8 -8 -8 -8 -8 -8 -8 -8 -8 -8 -8 -8 -8 -7 -7 -7 -7 -7 -6 -6 -6 -6 -6 -6 -5 -5 -5 -5 -5 -4
-7 -7 -7 -8 -8 -8 -8 -8 -8 -8 -8 -8 -8 -8 -8 -9 -9 -8 -8 -9 -8 -8 -8 -8 -8 -8 -8 -8 -8 -7 -7 -7 -7 -7 -7 -7 -6 -6 -6 -6 -6 -6 -6 -5
-8 -8 -8 -8 -8 -8 -8 -9 -9 -9 -9 -9 -9 -9 -9 -9 -9 -9 -9 -9 -9 -9 -9 -9 -9 -8 -8 -8 -8 -8 -8 -7 -8 -7 -7 -7 -7 -7 -7 -7 -6 -6 -6 -6
-8 -8 -8 -9 -9 -9 -9 -9 -9 -9 -9 -9 -9 -9 -9 -9 -9 -9 -9 -9 -9 -9 -9 -9 -9 -9 -9 -9 -9 -8 -8 -8 -8 -8 -8 -8 -8 -7 -7 -7 -7 -7 -7 -7
-8 -8 -8 -9 -9 -9 -9 -9 -9 -9 -9 -9 -9 -9 -10 -10 -10 -10 -10 -10 -9 -9 -9 -9 -9 -9 -9 -9 -9 -9 -9 -9 -9 -8 -8 -8 -8 -8 -8 -8 -8 -8 -8 -7
-9 -9 -9 -9 -9 -9 -9 -9 -9 -9 -10 -10 -10 -10 -10 -10 -10 -10 -10 -10 -10 -10 -10 -10 -10 -10 -9 -9 -9 -9 -9 -9 -9 -9 -9 -9 -9 -9 -9 -9 -9 -8 -8 -8
-9 -9 -9 -9 -9 -9 -9 -9 -10 -10 -10 -10 -10 -10 -10 -10 -10 -10 -10 -10 -10 -10 -10 -10 -10 -10 -10 -10 -10 -10 -10 -10 -10 -10 -10 -10 -9 -9 -9 -9 -9 -9 -9 -9
-9 -9 -9 -9 -9 -9 -10 -10 -10 -10 -10 -10 -10 -10 -10 -10 -10 -10 -10 -10 -10 -10 -10 -10 -10 -10 -10 -10 -10 -10 -10 -10 -10 -10 -10 -10 -10 -10 -10 -10 -10 -9 -9 -9
-10 -10 -10 -10 -10 -10 -10 -10 -10 -10 -10 -10 -10 -10 -11 -11 -11 -11 -11 -11 -11 -11 -10 -10 -10 -10 -10 -10 -10 -10 -10 -10 -10 -10 -10 -10 -10 -10 -10 -10 -10 -10 -10 -10
-10 -10 -10 -10 -10 -10 -10 -10 -10 -11 -11 -11 -11 -11 -11 -11 -11 -11 -11 -11 -11 -11 -11 -11 -11 -11 -11 -11 -11 -10 -10 -10 -10 -10 -11 -11 -11 -11 -10 -10 -10 -10 -10 -10
-10 -11 -11 -11 -11 -11 -11 -11 -11 -11 -11 -11 -11 -11 -11 -11 -11 -11 -11 -11 -11 -11 -11 -11 -11 -11 -11 -11 -11 -11 -11 -11 -11 -11 -11 -11 -11 -11 -11 -11 -11 -10 -10 -10
-11 -11 -11 -11 -11 -11 -11 -11 -11 -11 -11 -11 -11 -11 -11 -11 -11 -11 -11 -11 -11 -11 -11 -11 -11 -11 -11 -11 -11 -11 -11 -11 -11 -11 -11 -11 -11 -11 -11 -11 -11 -11 -11 -11
-11 -11 -12 -12 -12 -12 -12 -12 -12 -12 -12 -12 -11 -11 -11 -11 -11 -11 -11 -11 -11 -11 -12 -12 -12 -12 -12 -12 -12 -12 -12 -12 -11 -11 -11 -11 -11 -11 -11 -11 -11 -11 -11 -11
Wind_Speed
8 9 7 8 9 7 8 8 8 8 9 10 8 7 6 6 6 7 7 7 7 8 8 8 8 8 6 6 6 6 4 4 5 4 4 4 4 5 4 4 5 4 4 4
7 7 7 10 11 9 9 8 10 11 12 8 7 6 5 6 7 7 7 7 8 8 9 9 9 9 9 7 7 6 5 5 4 4 4 5 5 4 4 4 4 3 4 5
4 4 6 8 8 8 6 6 6 9 7 6 7 7 6 7 7 7 7 7 8 8 8 8 8 8 8 8 8 6 5 5 4 3 3 4 4 4 4 4 3 4 4 5
4 4 6 6 0 2 3 4 4 5 6 6 7 8 5 5 5 7 8 7 8 8 8 8 8 8 8 8 7 6 5 5 5 4 3 3 3 4 4 3 3 4 4 4
3 5 7 4 0 1 1 4 3 4 6 7 7 6 3 4 5 6 7 7 7 7 7 7 7 7 8 8 7 6 6 6 6 5 4 3 4 4 3 3 4 4 3 4
4 5 5 3 0 1 0 3 3 2 4 6 6 4 5 7 8 8 7 6 7 7 7 7 7 7 7 7 7 7 7 7 7 5 4 4 4 4 4 3 4 3 3 4
6 6 6 2 0 1 1 4 3 3 3 4 3 4 7 8 8 7 7 7 7 7 7 7 7 7 7 7 7 7 7 7 6 6 5 4 4 3 3 3 3 3 3 2
4 5 6 1 2 2 3 3 3 3 3 4 6 7 8 8 8 8 8 8 7 7 7 7 6 7 8 8 8 8 7 7 6 6 5 4 3 3 2 2 2 2 2 1
5 6 2 3 3 2 1 3 4 4 4 5 6 8 8 7 7 7 7 8 7 7 7 7 6 6 7 9 9 8 8 7 7 6 4 3 3 2 2 1 1 1 1 1
5 6 4 3 3 3 3 4 5 5 5 5 6 8 8 7 7 7 7 7 6 7 7 7 7 7 7 8 8 8 7 7 6 5 5 4 3 2 1 1 1 2 1 1
6 6 5 4 3 4 4 4 5 5 5 5 6 8 7 7 7 6 7 6 6 6 7 8 7 7 8 7 7 7 7 6 5 4 4 3 3 2 2 2 1 2 2 1
5 3 3 5 4 4 5 5 6 6 6 5 5 6 7 7 6 6 6 6 7 7 7 7 7 7 7 7 7 7 7 6 4 4 4 3 3 3 4 4 4 4 4 2
4 4 4 6 5 4 4 5 5 5 5 6 5 5 6 6 6 6 6 6 7 7 7 7 7 7 7 7 7 6 6 6 4 4 3 3 3 2 3 5 5 5 5 5
3 3 5 4 5 4 4 5 4 4 4 4 4 5 5 5 6 6 7 7 6 7 7 7 7 7 8 7 7 6 5 5 5 3 3 3 2 2 2 2 3 4 5 5
3 3 5 5 5 4 3 3 4 4 4 4 4 4 5 5 6 7 7 7 6 7 7 7 7 8 7 7 6 5 5 4 3 3 3 3 3 2 2 2 2 3 3 4
5 5 5 5 5 5 4 4 5 5 5 5 5 5 5 6 6 6 6 5 5 7 7 7 7 7 6 6 6 4 4 5 4 3 3 3 3 2 2 3 3 3 3 4
3 4 4 5 6 6 5 5 5 5 5 5 6 6 6 5 6 6 6 5 5 6 6 6 7 6 5 5 4 4 3 4 5 3 3 3 3 2 2 2 3 3 3 4
4 5 5 5 5 6 7 6 5 5 5 6 6 5 5 5 6 7 6 5 5 6 6 6 6 5 5 5 4 3 3 3 3 3 3 3 3 2 2 2 3 3 3 4
4 4 5 5 5 5 5 6 5 5 5 5 5 5 5 5 6 6 5 5 5 6 6 5 7 5 4 5 4 2 2 3 3 3 3 3 4 3 3 2 3 3 3 3
4 4 4 5 4 4 5 5 5 5 5 4 5 5 6 6 5 5 5 5 4 5 5 5 5 4 4 4 4 2 2 2 2 2 2 2 3 3 2 3 3 3 3 3
5 5 5 5 5 5 4 4 4 5 5 4 4 5 6 6 5 4 4 5 5 4 5 6 4 3 3 3 3 2 2 2 2 2 2 2 3 3 3 3 3 3 3 3
4 5 5 5 5 5 4 4 4 4 5 5 5 5 5 6 5 5 4 4 5 6 5 3 3 4 4 3 1 1 1 2 2 2 2 2 2 2 3 3 2 2 2 2
4 5 5 5 5 5 5 4 4 4 4 5 5 5 5 5 4 4 5 4 3 6 4 3 5 6 6 3 1 1 2 2 2 2 2 2 2 2 2 3 3 2 2 2
4 4 5 5 4 4 5 5 4 4 4 4 4 4 4 4 4 3 3 5 6 6 3 5 7 7 6 2 2 2 2 2 2 2 2 2 2 2 2 2 3 3 2 3
4 4 4 4 4 4 5 5 4 4 4 3 4 4 3 2 3 4 3 3 6 6 3 5 7 7 4 2 2 2 2 2 2 2 2 2 2 3 3 2 3 3 3 3
4 4 4 4 4 4 4 3 3 3 3 4 4 3 3 3 3 3 3 3 4 5 4 3 4 4 3 2 2 2 2 3 3 3 3 3 3 3 3 3 3 3 3 3
4 3 3 3 3 3 3 3 3 4 3 3 4 4 3 3 3 3 3 3 3 3 3 3 3 3 3 3 3 3 2 2 3 3 3 3 3 3 4 4 4 4 4 4
Wind_Direction
268 281 280 265 261 241 228 234 246 268 278 289 308 311 316 325 327 332 334 338 340 341 338 332 334 336 331 327 324 311 289 273 264 261 263 266 268 269 268 258 251 240 228 227
273 263 265 270 263 249 245 250 258 273 280 292 306 319 328 333 330 326 328 335 338 339 335 332 333 331 332 330 326 318 304 288 281 263 260 261 260 264 266 260 256 244 227 231
271 288 297 272 248 227 230 232 237 255 272 322 329 328 326 321 321 321 327 332 332 329 326 326 327 326 325 321 323 321 316 311 310 299 266 258 260 261 258 259 258 249 231 230
278 305 254 252 77 173 223 260 247 263 295 320 315 309 306 312 321 326 329 329 327 324 323 324 324 324 321 320 322 321 322 320 313 306 295 281 271 265 264 267 258 252 243 233
259 268 272 267 14 77 243 289 277 273 299 317 329 320 319 355 351 329 327 323 318 316 316 319 322 323 322 324 325 326 324 320 312 305 299 296 285 277 276 273 263 255 251 241
242 254 255 269 49 23 62 283 331 327 313 328 349 333 313 345 342 332 327 326 324 323 321 323 324 326 324 323 326 323 320 315 312 307 299 292 287 282 278 269 259 251 254 243
236 249 264 270 288 42 218 270 336 341 323 326 313 280 302 325 329 329 325 325 324 323 323 322 325 328 323 323 321 317 317 318 316 310 301 293 292 289 274 267 261 254 245 241
214 231 254 142 116 183 250 322 327 321 318 306 300 303 313 318 323 327 326 326 326 322 318 320 327 331 325 323 321 324 324 323 323 314 307 309 301 296 285 268 252 251 238 229
213 226 244 173 201 227 287 296 299 305 307 304 301 304 309 313 316 317 319 321 321 317 316 323 330 332 322 321 326 328 328 326 325 322 316 312 301 298 306 302 283 275 235 216
268 270 270 244 244 255 250 259 280 284 287 289 289 295 302 306 310 313 315 316 318 321 320 321 325 328 321 322 327 327 326 324 324 327 326 327 321 314 315 311 312 297 271 234
258 279 302 278 267 283 287 278 279 283 278 276 282 293 296 301 305 310 315 316 318 317 315 315 320 324 324 326 328 327 323 320 322 326 323 327 330 320 314 300 300 286 261 242
243 260 260 290 317 314 295 288 285 289 295 289 276 284 294 296 299 305 310 315 318 317 317 318 322 324 326 328 329 325 324 326 326 328 328 331 337 342 340 339 342 346 341 318
251 287 284 286 299 299 285 288 292 286 282 290 293 290 293 295 300 308 310 312 312 312 312 315 320 324 328 329 330 326 322 323 324 326 329 330 335 343 347 354 356 359 358 356
270 285 284 289 293 299 295 296 296 290 283 281 290 298 300 302 307 309 308 307 308 309 311 316 319 322 327 329 328 324 322 323 324 324 328 329 331 337 342 349 357 358 356 355
292 286 274 288 292 297 306 310 308 301 300 300 297 297 299 301 301 302 306 311 313 312 315 320 321 321 328 329 326 323 325 327 324 328 331 333 340 348 353 354 360 358 360 359
300 298 292 295 296 304 308 305 299 299 305 306 306 303 300 297 297 300 307 311 311 309 313 317 317 318 323 327 326 326 326 327 332 334 340 346 351 358 360 1 4 5 3 357
299 299 300 300 302 305 301 291 286 292 300 302 302 305 306 307 308 307 307 304 299 298 302 307 310 315 322 325 325 327 330 334 342 346 348 350 353 1 6 8 4 2 2 -0
264 271 276 278 288 296 301 300 296 295 293 294 299 303 302 300 299 301 304 307 309 307 307 306 311 319 323 325 323 327 333 340 351 354 355 357 358 4 10 9 5 2 359 359
291 287 287 285 285 286 290 294 297 296 296 297 297 295 293 291 294 298 303 306 310 310 311 311 319 324 322 324 330 329 341 348 356 357 356 352 357 4 7 11 8 4 1 2
302 297 296 297 296 291 290 291 294 295 294 294 296 299 301 299 299 301 301 293 290 290 298 312 316 315 314 318 328 333 345 349 355 356 356 356 355 357 357 357 2 360 359 358
308 311 309 305 301 298 292 293 294 295 300 300 294 293 295 298 298 297 299 299 302 304 309 315 320 315 311 319 328 339 342 346 351 351 347 346 346 348 348 348 349 347 346 347
306 309 306 304 302 303 303 300 295 296 300 299 296 296 300 304 304 298 283 281 301 318 322 316 317 321 325 329 335 335 335 338 337 337 335 333 330 329 330 331 329 330 334 336
301 300 301 301 299 300 306 304 298 294 292 293 294 294 294 294 297 302 305 307 310 318 323 320 325 326 327 341 350 333 327 326 323 320 317 315 313 311 310 313 315 318 320 320
299 300 301 301 304 305 306 305 301 295 290 291 290 287 290 301 303 293 288 309 324 325 327 327 332 333 336 356 344 329 320 315 312 307 305 304 301 298 298 301 301 303 303 302
302 301 303 305 304 299 298 303 306 304 305 302 300 300 295 287 289 304 314 319 325 331 331 331 335 339 347 346 339 330 325 316 305 303 300 301 300 296 290 287 288 292 293 292
304 300 295 290 293 300 306 307 305 307 310 312 316 319 321 319 310 310 317 322 324 331 337 335 335 337 340 336 331 329 327 325 327 329 323 313 307 305 299 294 290 288 289 288
310 310 309 310 309 307 306 305 304 306 308 309 312 318 323 324 324 326 327 331 332 332 333 332 333 332 330 329 331 331 330 328 323 320 319 316 311 305 303 296 290 287 286 284
Height
1511 1508 1507 1507 1506 1507 1509 1506 1504 1494 1490 1486 1485 1484 1482 1481 1479 1476 1474 1471 1469 1466 1463 1461 1459 1457 1456 1454 1452 1451 1450 1449 1449 1449 1450 1450 1450 1451 1452 1453 1454 1455 1456 1458
1512 1506 1505 1502 1499 1500 1501 1501 1498 1494 1490 1485 1483 1482 1481 1479 1478 1476 1473 1471 1468 1465 1463 1460 1457 1455 1453 1451 1449 1448 1446 1445 1444 1444 1445 1446 1447 1447 1448 1449 1449 1450 1451 1452
1510 1504 1502 1501 1495 1495 1496 1494 1495 1494 1490 1485 1484 1482 1480 1478 1477 1475 1472 1470 1467 1465 1462 1459 1456 1454 1451 1449 1447 1445 1444 1442 1441 1441 1441 1442 1442 1443 1444 1444 1445 1445 1446 1447
1511 1509 1510 1493 1490 1489 1491 1491 1490 1489 1487 1485 1484 1481 1479 1477 1476 1473 1471 1468 1465 1463 1460 1458 1455 1452 1449 1447 1445 1443 1441 1440 1439 1438 1437 1437 1438 1438 1439 1440 1440 1441 1442 1442
1512 1509 1499 1490 1491 1491 1492 1491 1488 1487 1485 1484 1482 1479 1477 1476 1474 1472 1470 1467 1464 1461 1459 1456 1453 1450 1447 1445 1443 1441 1439 1437 1436 1435 1434 1434 1434 1434 1435 1436 1436 1436 1437 1437
1511 1509 1503 1492 1492 1490 1492 1492 1486 1485 1484 1483 1481 1482 1478 1475 1472 1470 1468 1465 1463 1460 1457 1454 1451 1449 1446 1443 1441 1439 1437 1435 1434 1433 1432 1431 1431 1431 1432 1432 1432 1432 1433 1433
1511 1507 1498 1493 1491 1491 1495 1491 1487 1485 1484 1484 1483 1482 1479 1474 1472 1469 1467 1464 1461 1458 1455 1452 1450 1447 1444 1441 1439 1437 1435 1433 1431 1431 1430 1429 1429 1429 1429 1429 1429 1428 1428 1429
1507 1506 1500 1492 1491 1493 1491 1487 1486 1485 1484 1482 1480 1478 1475 1473 1470 1467 1464 1461 1459 1456 1453 1450 1448 1446 1442 1440 1437 1435 1433 1431 1429 1428 1427 1426 1426 1426 1426 1426 1425 1425 1424 1425
1500 1497 1490 1488 1488 1488 1487 1486 1484 1483 1481 1480 1477 1475 1473 1470 1468 1465 1462 1459 1456 1454 1451 1448 1446 1444 1441 1438 1435 1433 1431 1429 1428 1426 1425 1425 1424 1423 1423 1423 1422 1422 1421 1422
1495 1489 1486 1486 1486 1485 1485 1483 1482 1481 1479 1477 1475 1473 1470 1468 1465 1463 1460 1457 1454 1452 1449 1446 1444 1441 1439 1436 1434 1431 1429 1427 1425 1424 1423 1423 1422 1422 1421 1421 1420 1420 1419 1420
1493 1488 1485 1483 1483 1483 1482 1480 1479 1477 1476 1474 1472 1470 1468 1465 1463 1460 1458 1455 1452 1449 1447 1444 1442 1439 1437 1434 1432 1429 1427 1425 1423 1422 1422 1421 1420 1420 1420 1420 1420 1419 1418 1418
1488 1485 1484 1482 1481 1480 1479 1477 1476 1474 1472 1471 1470 1467 1465 1462 1460 1458 1455 1453 1449 1447 1444 1442 1439 1437 1435 1432 1430 1427 1425 1423 1422 1421 1420 1419 1418 1418 1418 1419 1418 1417 1417 1417
1483 1482 1481 1479 1478 1477 1476 1474 1472 1471 1469 1468 1466 1464 1462 1460 1457 1455 1452 1450 1447 1444 1442 1440 1437 1435 1433 1430 1428 1426 1424 1422 1421 1420 1419 1418 1417 1417 1416 1416 1416 1416 1416 1416
1480 1479 1477 1476 1475 1474 1472 1471 1469 1468 1466 1465 1463 1461 1459 1457 1455 1452 1450 1447 1445 1442 1439 1437 1434 1432 1430 1428 1426 1424 1422 1420 1419 1418 1418 1417 1417 1416 1416 1415 1414 1414 1415 1415
1477 1476 1475 1473 1471 1470 1469 1467 1466 1464 1463 1461 1460 1458 1456 1454 1452 1449 1447 1445 1442 1439 1437 1434 1432 1430 1428 1426 1423 1421 1420 1419 1418 1417 1417 1416 1416 1415 1415 1414 1414 1413 1413 1413
1474 1473 1471 1470 1468 1467 1465 1464 1462 1461 1460 1458 1457 1455 1453 1451 1449 1447 1445 1442 1440 1437 1435 1432 1430 1428 1426 1424 1422 1420 1418 1418 1417 1416 1415 1415 1415 1414 1414 1414 1413 1412 1412 1412
1471 1469 1468 1466 1465 1463 1462 1461 1460 1458 1457 1455 1454 1452 1451 1448 1446 1444 1442 1440 1438 1435 1433 1431 1428 1427 1425 1423 1421 1419 1417 1417 1416 1415 1415 1414 1414 1413 1413 1413 1413 1412 1412 1412
1469 1467 1466 1464 1463 1461 1459 1458 1457 1456 1454 1453 1451 1449 1448 1446 1444 1441 1439 1437 1435 1433 1431 1429 1427 1425 1423 1421 1419 1418 1417 1416 1415 1414 1414 1414 1413 1413 1413 1412 1412 1411 1411 1411
1466 1465 1463 1462 1460 1459 1457 1456 1454 1453 1451 1450 1448 1446 1445 1443 1441 1439 1437 1435 1432 1430 1428 1427 1425 1423 1421 1420 1419 1417 1416 1415 1414 1414 1414 1413 1413 1412 1412 1411 1411 1411 1410 1410
1463 1462 1460 1459 1457 1456 1454 1453 1452 1450 1449 1447 1445 1444 1442 1440 1439 1437 1435 1432 1431 1429 1427 1425 1423 1422 1420 1419 1418 1417 1416 1415 1414 1414 1413 1413 1412 1411 1411 1411 1410 1410 1410 1410
1461 1459 1458 1456 1455 1453 1452 1450 1449 1447 1446 1444 1443 1441 1439 1437 1436 1434 1432 1430 1429 1427 1425 1424 1422 1420 1419 1418 1417 1416 1415 1414 1413 1413 1412 1412 1411 1411 1410 1410 1409 1409 1409 1409
1458 1457 1455 1454 1452 1450 1449 1448 1446 1445 1443 1441 1440 1438 1436 1435 1433 1432 1430 1429 1427 1425 1424 1422 1421 1419 1418 1417 1416 1415 1414 1414 1413 1412 1411 1411 1410 1410 1409 1409 1409 1408 1408 1408
1456 1454 1453 1451 1449 1448 1446 1445 1443 1442 1440 1439 1437 1436 1434 1433 1431 1430 1428 1427 1425 1424 1422 1420 1419 1418 1417 1416 1415 1414 1413 1412 1412 1411 1411 1410 1409 1409 1408 1408 1407 1407 1407 1406
1453 1452 1450 1448 1447 1445 1443 1442 1441 1440 1438 1437 1435 1433 1432 1430 1429 1428 1426 1425 1423 1422 1420 1419 1418 1417 1416 1415 1413 1413 1412 1411 1410 1410 1409 1409 1408 1408 1407 1406 1406 1406 1405 1405
1451 1449 1447 1446 1444 1442 1441 1440 1438 1437 1436 1434 1433 1431 1430 1428 1427 1425 1424 1423 1421 1420 1419 1418 1416 1415 1414 1413 1412 1411 1410 1410 1409 1408 1408 1407 1406 1406 1405 1405 1404 1403 1403 1403
1448 1446 1445 1443 1442 1440 1439 1437 1436 1434 1433 1432 1430 1429 1428 1426 1425 1423 1422 1421 1420 1418 1417 1416 1415 1414 1413 1412 1411 1410 1409 1408 1407 1407 1406 1405 1404 1404 1403 1402 1401 1401 1400 1400
1446 1444 1442 1441 1439 1438 1437 1435 1434 1432 1431 1430 1428 1427 1426 1424 1423 1421 1420 1419 1418 1416 1415 1414 1413 1412 1411 1410 1409 1408 1407 1406 1406 1405 1404 1403 1402 1401 1400 1399 1398 1398 1397 1397